Regional Weather Roundup
Issued by NWS Raleigh/Durham, NC

Home | Current Version | Previous Version | Text Only | Print | Product List | Glossary On
Versions: 1 2 3 4 5 6 7 8 9 10 11 12 13 14 15 16 17 18 19 20 21 22 23 24 25 26 27 28 29 30 31 32 33 34 35 36 37 38 39 40 41 42 43 44 45 46 47 48 49 50
000
ASUS42 KRAH 140010
RWRRAH
NORTH CAROLINA WEATHER ROUNDUP
NATIONAL WEATHER SERVICE RALEIGH NC
700 PM EST SAT FEB 13 2016

NOTE: "FAIR" INDICATES FEW OR NO CLOUDS BELOW 12,000 FEET WITH NO
SIGNIFICANT WEATHER AND/OR OBSTRUCTIONS TO VISIBILITY.

NCZ001-053-055-056-065-067-140100-
WESTERN NORTH CAROLINA

CITY           SKY/WX    TMP DP  RH WIND       PRES   REMARKS
ASHEVILLE      CLEAR     23   2  40 N10G22    30.32R WCI  12
JEFFERSON      CLEAR     14  -3  47 NW15G23   30.21R WCI  -2
MORGANTON      CLEAR     28  -1  29 NW8       30.40R WCI  19
HICKORY        CLEAR     27   0  31 N6        30.34R WCI  20
RUTHERFORDTON  CLEAR     29   2  31 N3        30.36R
MOUNT AIRY     CLEAR     24  -3  31 NW6       30.38R WCI  16
BOONE          CLOUDY    16  -3  44 NW5G17    30.22R WCI   9
$$

NCZ021-022-025-041-071-084-088-140100-
CENTRAL NORTH CAROLINA

CITY           SKY/WX    TMP DP  RH WIND       PRES   REMARKS
CHARLOTTE      PTCLDY    32   2  27 N9        30.35R WCI  24
GREENSBORO     CLEAR     25  -3  29 N6        30.35R WCI  18
WINSTON-SALEM  CLEAR     25  -3  29 NW10      30.37R WCI  15
RALEIGH-DURHAM CLEAR     28  -3  26 VRB5      30.37R WCI  23
FORT BRAGG     CLEAR     31   0  26 N5        30.35R WCI  26
FAYETTEVILLE   CLEAR     32   3  29 N7        30.36R WCI  26
BURLINGTON     CLEAR     26  -2  29 NW10G16   30.37R WCI  16
LAURINBURG     CLEAR     32   5  32 N7        30.36R WCI  26
$$

NCZ011-015-027-028-043-044-047-080-103-140100-
NORTHEASTERN NORTH CAROLINA

CITY           SKY/WX    TMP DP  RH WIND       PRES   REMARKS
ROCKY MT-WILSO CLEAR     28   2  32 NW7       30.37R WCI  21
GREENVILLE     CLEAR     30   3  31 N3        30.37R
WASHINGTON     CLEAR     29   1  30 NW9       30.36R WCI  21
ELIZABETH CITY CLEAR     27   5  39 W12       30.34R WCI  17
MANTEO         CLEAR     29   6  36 N12       30.32R WCI  20
CAPE HATTERAS  CLEAR     32   8  36 NW14G25   30.31R WCI  22
$$

NCZ078-087-090-091-093-098-101-140100-
SOUTHEASTERN NORTH CAROLINA

CITY           SKY/WX    TMP DP  RH WIND       PRES   REMARKS
LUMBERTON      CLEAR     34   9  35 N5        30.35R WCI  30
GOLDSBORO      CLEAR     32   0  25 NW8       30.35R WCI  25
KINSTON        CLEAR     30   3  31 NW7       30.37R WCI  23
KENANSVILLE    CLEAR     30   8  40 CALM      30.37R
NEW BERN       CLEAR     30   6  36 NW7       30.37R WCI  23
CHERRY POINT   CLEAR     32   5  32 NW14      30.36R WCI  22
BEAUFORT       CLEAR     31   8  38 NW7       30.35R WCI  24
JACKSONVILLE   CLEAR     31   6  35 NW8       30.36R WCI  23
WILMINGTON     CLEAR     33   8  35 N6        30.35R WCI  28
$$




USA.gov is the U.S. government's official web portal to all federal, state and local government web resources and services.